Broome Arpt, Australia

5:18 PM AWST on February 21, 2017 (GMT +0800)
Broome International

Weather History for YBRM - February, 2013

Change the Weather History Date:

Saturday, February 2, 2013

  Actual Average Record
Temperature  
Mean Temperature 85 °F -  
Max Temperature 94 °F 91 °F - ()
Min Temperature 76 °F 79 °F - ()
Cooling Degree Days 20    
Growing Degree Days 35 (Base 50)    
Moisture  
Dew Point 76 °F    
Average Humidity 70    
Maximum Humidity 89    
Minimum Humidity 49    
Precipitation  
Precipitation 0.00 in 0.21 in - ()
Sea Level Pressure  
Sea Level Pressure 29.81 in    
Wind  
Wind Speed 7 mph ()    
Max Wind Speed 15 mph    
Max Gust Speed -    
Visibility 7.4 miles    
Events      
T = Trace of Precipitation, MM = Missing Value Source: Averaged Metar Reports

Daily Weather History Graph

Daily Weather History Graph

Search for Another Location

Airport or City:

Trip Planner

Search our weather history database for the weather conditions in past years. The results will help you decide how hot, cold, wet, or windy it might be!

Date:

Astronomy

Feb. 02, 2013 Rise Set
Actual Time 5:38 AM AWST 6:30 PM AWST
Civil Twilight 5:15 AM AWST 6:53 PM AWST
Nautical Twilight 4:48 AM AWST 7:20 PM AWST
Astronomical Twilight 4:20 AM AWST 7:48 PM AWST
Moon 10:36 PM AWST (2/2) 10:44 AM AWST (2/2)
Length of Visible Light 13h 38m
Length of Day
12h 52m
Waning Gibbous, 66% of the Moon is Illuminated
Feb 2
Waning Gibbous
Feb 3
Last Quarter
Feb 10
New
Feb 18
First Quarter
Feb 26
Full

Hourly Weather History & Observations

Time (AWST) Temp. Heat Index Dew Point Humidity Pressure Visibility Wind Dir Wind Speed Gust Speed Precip Events Conditions
12:00 AM 87 °F - 72 °F 54% 29.82 in - West 9.2 mph - -  
12:00 AM 86.0 °F 93.4 °F 73.4 °F 66% 29.80 in 6.2 mi West 9.2 mph - N/A   Unknown
12:30 AM 86.0 °F 93.4 °F 73.4 °F 66% 29.80 in 6.2 mi West 8.1 mph - N/A   Unknown
1:00 AM 86.0 °F 93.4 °F 73.4 °F 66% 29.80 in 6.2 mi WNW 6.9 mph - N/A   Unknown
1:30 AM 84.2 °F 90.9 °F 73.4 °F 70% 29.80 in 6.2 mi North 4.6 mph - N/A   Unknown
2:00 AM 80 °F - 74 °F 76% 29.81 in - NNE 1.2 mph - -  
2:00 AM 80.6 °F 85.4 °F 73.4 °F 79% 29.80 in 6.2 mi NNE 1.2 mph - N/A   Unknown
2:30 AM 78.8 °F - 75.2 °F 89% 29.80 in 6.2 mi NE 4.6 mph - N/A   Unknown
3:00 AM 80 °F - 74 °F 76% 29.84 in - ESE 4.6 mph - -  
3:00 AM 78.8 °F - 73.4 °F 83% 29.83 in 6.2 mi ESE 4.6 mph - N/A   Unknown
3:30 AM 80.6 °F 85.4 °F 73.4 °F 79% 29.83 in 6.2 mi ENE 2.3 mph - N/A   Unknown
4:00 AM 82.4 °F 89.5 °F 75.2 °F 79% 29.83 in 6.2 mi ESE 9.2 mph - N/A   Unknown
4:30 AM 82.4 °F 88.2 °F 73.4 °F 74% 29.83 in 6.2 mi ESE 4.6 mph - N/A   Unknown
5:00 AM 77 °F - 72 °F 82% 29.85 in - North 6.9 mph - -  
5:00 AM 77.0 °F - 73.4 °F 89% 29.83 in 6.2 mi North 6.9 mph - N/A   Unknown
5:30 AM 77.0 °F - 71.6 °F 83% 29.83 in - North 3.5 mph - N/A   Clear
6:00 AM 78 °F - 71 °F 74% 29.86 in 25 mi Calm Calm - -   Partly Cloudy
6:00 AM 77.0 °F - 71.6 °F 83% 29.86 in 6.2 mi Calm Calm - N/A   Partly Cloudy
6:30 AM 80.6 °F 84.6 °F 71.6 °F 74% 29.86 in 6.2 mi NNE 1.2 mph - N/A   Partly Cloudy
7:00 AM 82.4 °F 88.2 °F 73.4 °F 74% 29.86 in 6.2 mi East 4.6 mph - N/A   Partly Cloudy
7:30 AM 86.0 °F 95.1 °F 75.2 °F 70% 29.86 in 6.2 mi East 5.8 mph - N/A   Partly Cloudy
8:00 AM 87 °F - 74 °F 58% 29.88 in - East 5.8 mph - -  
8:00 AM 86.0 °F 95.1 °F 75.2 °F 70% 29.86 in 6.2 mi East 5.8 mph - N/A   Partly Cloudy
8:30 AM 87.8 °F 97.6 °F 75.2 °F 66% 29.86 in 6.2 mi South 4.6 mph - N/A   Partly Cloudy
9:00 AM 89 °F - 77 °F 61% 29.88 in 25 mi SE 6.9 mph - -   Partly Cloudy
9:00 AM 89.6 °F 102.2 °F 77.0 °F 66% 29.86 in 6.2 mi SE 6.9 mph - N/A   Partly Cloudy
9:30 AM 89.6 °F 102.2 °F 77.0 °F 66% 29.86 in 6.2 mi SSE 6.9 mph - N/A   Partly Cloudy
10:00 AM 91.4 °F 107.2 °F 78.8 °F 66% 29.86 in 6.2 mi South 5.8 mph - N/A   Partly Cloudy
10:30 AM 93.2 °F 107.2 °F 77.0 °F 59% 29.86 in 6.2 mi WSW 9.2 mph - N/A   Partly Cloudy
11:00 AM 91 °F - 78 °F 58% 29.85 in - West 11.5 mph - -  
11:00 AM 91.4 °F 107.2 °F 78.8 °F 66% 29.83 in 6.2 mi West 11.5 mph - N/A   Unknown
11:30 AM 91.4 °F 107.2 °F 78.8 °F 66% 29.83 in 6.2 mi West 10.4 mph - N/A   Partly Cloudy
12:00 PM 91 °F - 78 °F 57% 29.83 in 19 mi West 11.5 mph - -   Partly Cloudy
12:00 PM 91.4 °F 105.1 °F 77.0 °F 63% 29.83 in 6.2 mi West 11.5 mph - N/A   Partly Cloudy
12:30 PM 93.2 °F 110.2 °F 78.8 °F 63% 29.80 in 6.2 mi West 10.4 mph - N/A   Partly Cloudy
1:00 PM 91.4 °F 107.2 °F 78.8 °F 66% 29.80 in 6.2 mi West 11.5 mph - N/A   Partly Cloudy
1:30 PM 93.2 °F 107.2 °F 77.0 °F 59% 29.80 in 6.2 mi West 10.4 mph - N/A   Partly Cloudy
2:00 PM 92 °F - 75 °F 49% 29.79 in - West 12.7 mph - -  
2:00 PM 93.2 °F 105.0 °F 75.2 °F 56% 29.77 in 6.2 mi West 12.7 mph - N/A   Partly Cloudy
2:30 PM 93.2 °F 110.2 °F 78.8 °F 63% 29.77 in 6.2 mi West 15.0 mph - N/A   Partly Cloudy
3:00 PM 92 °F - 79 °F 58% 29.78 in 19 mi West 13.8 mph - -   Partly Cloudy
3:00 PM 91.4 °F 107.2 °F 78.8 °F 66% 29.77 in 6.2 mi West 13.8 mph - N/A   Partly Cloudy
3:30 PM 91.4 °F 107.2 °F 78.8 °F 66% 29.77 in 6.2 mi West 15.0 mph - N/A   Partly Cloudy
4:00 PM 91.4 °F 107.2 °F 78.8 °F 66% 29.74 in 6.2 mi West 15.0 mph - N/A   Partly Cloudy
4:30 PM 91.4 °F 107.2 °F 78.8 °F 66% 29.74 in 6.2 mi West 13.8 mph - N/A   Partly Cloudy
5:00 PM 90 °F - 79 °F 64% 29.76 in - West 13.8 mph - -  
5:00 PM 89.6 °F 104.7 °F 78.8 °F 70% 29.74 in - West 13.8 mph - N/A   Clear
5:30 PM 89.6 °F 104.7 °F 78.8 °F 70% 29.74 in - West 13.8 mph - N/A   Clear
6:00 PM 89 °F - 78 °F 64% 29.76 in 19 mi West 12.7 mph - -   Partly Cloudy
6:00 PM 89.6 °F 104.7 °F 78.8 °F 70% 29.74 in - West 12.7 mph - N/A   Clear
6:30 PM 87.8 °F 102.5 °F 78.8 °F 75% 29.77 in 6.2 mi West 12.7 mph - N/A   Unknown
7:00 PM 87.8 °F 102.5 °F 78.8 °F 75% 29.77 in 6.2 mi West 10.4 mph - N/A   Unknown
7:30 PM 87.8 °F 102.5 °F 78.8 °F 75% 29.77 in - West 11.5 mph - N/A   Clear
8:00 PM 87 °F - 78 °F 70% 29.80 in - West 11.5 mph - -  
8:00 PM 87.8 °F 102.5 °F 78.8 °F 75% 29.80 in - West 11.5 mph - N/A   Clear
8:30 PM 86.0 °F 99.3 °F 78.8 °F 79% 29.80 in - West 10.4 mph - N/A   Clear
9:00 PM 87 °F - 79 °F 71% 29.82 in 19 mi West 10.4 mph - -   Partly Cloudy
9:00 PM 86.0 °F 99.3 °F 78.8 °F 79% 29.80 in - West 10.4 mph - N/A   Clear
9:30 PM 86.0 °F 99.3 °F 78.8 °F 79% 29.83 in 6.2 mi West 8.1 mph - N/A   Unknown
10:00 PM 86.0 °F 99.3 °F 78.8 °F 79% 29.83 in 6.2 mi West 8.1 mph - N/A   Unknown
10:30 PM 86.0 °F 99.3 °F 78.8 °F 79% 29.83 in 6.2 mi WNW 8.1 mph - N/A   Unknown
11:00 PM 86 °F - 79 °F 75% 29.83 in - WNW 6.9 mph - -  
11:00 PM 86.0 °F 99.3 °F 78.8 °F 79% 29.83 in 6.2 mi WNW 6.9 mph - N/A   Unknown
11:30 PM 86.0 °F 99.3 °F 78.8 °F 79% 29.83 in 6.2 mi WNW 8.1 mph - N/A   Scattered Clouds